Location: Kawakawa
(35.3830°S, 174.0670°E)
Time: 08:59:55
(UTC+13:00)

Explorer 7 - Pass Details

Date: 13 December 2019
Orbit: 485 x 679 km, 50.3° (Epoch: 22 January)

Event Time Altitude Azimuth Distance (km) Brightness Sun altitude
Rises 11:31:37 0° 237° (WSW) 2,612 10.0 64.0°
Reaches altitude 10° 11:33:51 10° 244° (WSW) 1,742 9.2 64.4°
Maximum altitude 11:37:35 42° 315° (NW) 767 8.0 65.1°
Drops below altitude 10° 11:41:29 10° 26° (NNE) 1,816 9.9 65.8°
Sets 11:43:51 0° 32° (NNE) 2,738 10.7 66.3°
